Simultaneous Nadir Overpasses (SNOs) Predictions

Prediction of SNOs over PacNW region [( 10.00, 139.50) to ( 22.70, 165.60)] between AQUA and NPP Satellites:

Table of predicted SNOs over PacNW region for the next 30.0 days since TLE Epoch: 12/27/2019
Index Date (AQUA) Time (AQUA) AQUA Lat,Lon Date (NPP) Time (NPP) NPP Lat,Lon Distance(km) Time Diff (sec)
1 01/01/2020 15:59:11 22.60, 147.50 01/01/2020 16:01:25 23.23, 144.60 304.61 134
2 01/09/2020 15:09:43 22.63, 159.87 01/09/2020 15:10:34 23.22, 157.30 271.23 51
3 01/12/2020 03:31:34 22.68, 147.54 01/12/2020 03:28:04 27.12, 144.69 571.25 210
4 01/17/2020 15:59:08 22.60, 147.52 01/17/2020 16:01:12 23.25, 144.64 303.34 124




NCC Satellite Simultaneous Nadir Overpasses (SNOs) Prediction Service
